Location: El Gallo
(32.4380°N, 116.9347°W)
Time: 19:01:34
(UTC+00:00)

YAOGAN 6 - Pass Details

Date: 01 October 2022
Orbit: 453 x 491 km, 97.1° (Epoch: 02 December)

Event Time Altitude Azimuth Distance (km) Brightness Sun altitude
Rises 12:14:36 0° 4° (N) 2,576 6.4 -19.2°
Reaches altitude 10° 12:16:44 10° 359° (N) 1,687 5.4 -18.7°
Maximum altitude 12:20:15 50° 284° (WNW) 629 2.7 -18.0°
Enters shadow 12:20:41 47° 258° (WSW) 656 2.7 -17.9°
